Location: Ełk
(53.8214°N, 22.3622°E)
Time: 22:00:28
(UTC+01:00)

ISS - Pass Details

Date: 02 February 2019
Orbit: 403 x 411 km, 51.6° (Epoch: 18 February)

Event Time Altitude Azimuth Distance (km) Brightness Sun altitude
Rises 18:05:32 0° 272° (W) 2,337 1.8 -16.6°
Reaches altitude 10° 18:07:38 10° 267° (W) 1,477 0.4 -16.9°
Maximum altitude 18:10:52 52° 190° (S) 517 -3.3 -17.3°
Enters shadow 18:11:44 39° 140° (SE) 637 -3.2 -17.5°
